sat.trackr.live / text

‹ back to catalog

STARLINK-5196

NORAD 55319 · 2023-010BC

PAYLOAD ACTIVE UNKNOWN

§ Identity

Operator
Country
US
Launch date
2023-01-19
Launch site
AFWTR
Launch vehicle
Mass (kg)
RCS (m²)

Purposes: comms

External: N2YO · Heavens-Above · Gunter

§ Orbital elements

Epoch: 2026-09-20T22:00:03.000096Z

Period
95.57 min
Inclination
69.9989°
Eccentricity
0.0004959
Mean motion
15.06759666 rev/d
Perigee alt
542.7 km
Apogee alt
549.5 km
Semi-major
6,924.2 km
B*
3.4731e-3
RAAN
232.0832°
Arg perigee
250.2221°
Mean anomaly
296.2061°
Rev number
571

§ Raw data

STARLINK-51961 55319U 23010BC  26263.91670139  .00052067  00000+0  34731-2 0  99932 55319  69.9989 232.0832 0004959 250.2221 296.2061 15.06759666  5716

JSON: /api/v1/satellites/55319 · /tle

For live sub-satellite position, see the globe view (requires WebGL).

§ Visibility from observer

Set your observer location to see the next 7 days of passes ≥ 10°. The values pass through the URL so the page stays shareable.

No JS? Fill the form by hand. The geolocation button needs JavaScript.